Military
NORAD ID: 33108
Int'l Code: 2008-033A
Perigee: 35,772.1 km
Apogee: 35,809.9 km
Inclination: 1.9 °
Period: 1,436.0 minutes
Semi major axis: 42161 km
Launch date: June 27, 2008
Source: Commonwealth of Independent States (former USSR) (CIS)
Comments: Cosmos 2440 is a Russian military, geostationary, early warning craft.
Two Line Element Set (TLE):
1 33108U 08033A 13139.29899847 -.00000055 00000-0 10000-3 0 1348
2 33108 001.9375 056.8025 0004476 002.5854 356.9367 01.00281608 17916
Source: AFSPC
NASA's NSSDC Master Catalog entry for COSMOS 2440